Weather History for Shenandoah, IA

Change the Weather History Date:

Saturday, October 9, 2010

  Actual Average Record
Temperature  
Mean Temperature 68 °F -  
Max Temperature 87 °F 66 °F 88 °F (1980)
Min Temperature 48 °F 42 °F 24 °F (2000)
Cooling Degree Days 2    
Growing Degree Days 18 (Base 50)    
Moisture  
Dew Point 45 °F    
Average Humidity 53    
Maximum Humidity 88    
Minimum Humidity 16    
Precipitation  
Precipitation 0.00 in - - ()
Sea Level Pressure  
Sea Level Pressure 29.95 in    
Wind  
Wind Speed 4 mph (South)    
Max Wind Speed 18 mph    
Max Gust Speed 24 mph    
Visibility 10 miles    
Events      
Averages and records for this station are not official NWS values.
T = Trace of Precipitation, MM = Missing Value Source: NWS Daily Summary

Daily Weather History Graph

Daily Weather History Graph

Search for Another Location

Airport:

Trip Planner

Search our weather history database for the weather conditions in past years. The results will help you decide how hot, cold, wet, or windy it might be!

Date:

Astronomy

Oct. 09, 2010 Rise Set
Actual Time 7:26 AM CDT 6:50 PM CDT
Civil Twilight 6:59 AM CDT 7:18 PM CDT
Nautical Twilight 6:27 AM CDT 7:49 PM CDT
Astronomical Twilight 5:55 AM CDT 8:21 PM CDT
Moon 9:49 AM CDT (10/9) 7:45 PM CDT (10/9)
Length of Visible Light 12h 19m
Length of Day
11h 24m
Waxing Crescent, 5% of the Moon is Illuminated
Oct 9
Waxing Crescent
Oct 14
First Quarter
Oct 22
Full
Oct 30
Last Quarter
Nov 5
New

Hourly Weather History & Observations

Time (CDT) Temp. Dew Point Humidity Pressure Visibility Wind Dir Wind Speed Gust Speed Precip Events Conditions
12:15 AM 62.6 °F 51.8 °F 68% 29.98 in 10.0 mi Calm Calm - N/A   Scattered Clouds
12:35 AM 64.4 °F 51.8 °F 64% 29.97 in 10.0 mi Calm Calm - N/A   Clear
12:55 AM 64.4 °F 51.8 °F 64% 29.98 in 10.0 mi SW 4.6 mph - N/A   Clear
1:15 AM 62.6 °F 51.8 °F 68% 29.98 in 10.0 mi South 5.8 mph - N/A   Clear
1:35 AM 59.0 °F 51.8 °F 77% 29.98 in 10.0 mi Calm Calm - N/A   Clear
1:55 AM 60.8 °F 51.8 °F 72% 29.98 in 10.0 mi Calm Calm - N/A   Clear
2:15 AM 60.8 °F 51.8 °F 72% 29.98 in 10.0 mi Calm Calm - N/A   Clear
2:35 AM 55.4 °F 50.0 °F 82% 29.98 in 10.0 mi Calm Calm - N/A   Clear
2:55 AM 53.6 °F 48.2 °F 82% 29.98 in 10.0 mi Calm Calm - N/A   Clear
3:15 AM 53.6 °F 50.0 °F 88% 29.98 in 10.0 mi Calm Calm - N/A   Scattered Clouds
3:35 AM 55.4 °F 50.0 °F 82% 29.98 in 10.0 mi Calm Calm - N/A   Clear
3:55 AM 51.8 °F 46.4 °F 82% 29.98 in 10.0 mi Calm Calm - N/A   Clear
4:15 AM 51.8 °F 48.2 °F 88% 29.98 in 10.0 mi SSE 3.5 mph - N/A   Clear
4:35 AM 50.0 °F 46.4 °F 87% 29.98 in 10.0 mi Calm Calm - N/A   Clear
4:55 AM 53.6 °F 46.4 °F 77% 29.97 in 10.0 mi Calm Calm - N/A   Clear
5:15 AM 50.0 °F 46.4 °F 87% 29.97 in 10.0 mi SE 3.5 mph - N/A   Clear
5:35 AM 50.0 °F 46.4 °F 87% 29.96 in 10.0 mi SE 4.6 mph - N/A   Scattered Clouds
5:55 AM 48.2 °F 44.6 °F 87% 29.97 in 10.0 mi Calm Calm - N/A   Clear
6:15 AM 51.8 °F 46.4 °F 82% 29.96 in 10.0 mi Calm Calm - N/A   Clear
6:35 AM 50.0 °F 44.6 °F 82% 29.97 in 10.0 mi Calm Calm - N/A   Clear
6:55 AM 51.8 °F 46.4 °F 82% 29.97 in 10.0 mi Calm Calm - N/A   Clear
7:15 AM 50.0 °F 44.6 °F 82% 29.97 in 10.0 mi Calm Calm - N/A   Clear
7:35 AM 50.0 °F 44.6 °F 82% 29.97 in 10.0 mi Calm Calm - N/A   Clear
7:55 AM 50.0 °F 44.6 °F 82% 29.97 in 10.0 mi Calm Calm - N/A   Clear
8:15 AM 51.8 °F 46.4 °F 82% 29.97 in 10.0 mi Calm Calm - N/A   Clear
8:35 AM 55.4 °F 50.0 °F 82% 29.97 in 10.0 mi SE 3.5 mph - N/A   Clear
8:55 AM 59.0 °F 51.8 °F 77% 29.97 in 10.0 mi South 3.5 mph - N/A   Clear
9:15 AM 62.6 °F 51.8 °F 68% 29.97 in 10.0 mi ESE 3.5 mph - N/A   Clear
9:35 AM 64.4 °F 51.8 °F 64% 29.97 in 10.0 mi SE 4.6 mph - N/A   Clear
9:55 AM 68.0 °F 51.8 °F 56% 29.97 in 10.0 mi SSE 5.8 mph - N/A   Clear
10:15 AM 69.8 °F 50.0 °F 49% 29.99 in 10.0 mi SSW 6.9 mph - N/A   Clear
10:35 AM 71.6 °F 46.4 °F 41% 29.98 in 10.0 mi South 9.2 mph - N/A   Clear
10:55 AM 75.2 °F 44.6 °F 34% 29.97 in 10.0 mi SSW 9.2 mph - N/A   Clear
11:35 AM 78.8 °F 42.8 °F 28% 29.97 in 10.0 mi SW 9.2 mph - N/A   Clear
11:55 AM 78.8 °F 42.8 °F 28% 29.96 in 10.0 mi SSE 11.5 mph - N/A   Clear
12:15 PM 80.6 °F 41.0 °F 24% 29.96 in 10.0 mi SSE 12.7 mph - N/A   Clear
12:35 PM 82.4 °F 41.0 °F 23% 29.95 in 10.0 mi SSE 13.8 mph - N/A   Clear
12:55 PM 82.4 °F 41.0 °F 23% 29.95 in 10.0 mi South 12.7 mph 17.3 mph N/A   Clear
1:15 PM 84.2 °F 41.0 °F 22% 29.95 in 10.0 mi South 10.4 mph 18.4 mph N/A   Clear
1:35 PM 84.2 °F 41.0 °F 22% 29.94 in 10.0 mi SSW 8.1 mph - N/A   Clear
1:55 PM 86.0 °F 39.2 °F 19% 29.94 in 10.0 mi South 15.0 mph - N/A   Clear
2:15 PM 86.0 °F 37.4 °F 18% 29.93 in 10.0 mi South 9.2 mph 18.4 mph N/A   Clear
2:35 PM 86.0 °F 35.6 °F 17% 29.92 in 10.0 mi South 10.4 mph 18.4 mph N/A   Clear
2:55 PM 87.8 °F 35.6 °F 16% 29.91 in 10.0 mi South 16.1 mph 19.6 mph N/A   Clear
3:15 PM 86.0 °F 35.6 °F 17% 29.90 in 10.0 mi South 12.7 mph 19.6 mph N/A   Clear
3:35 PM 86.0 °F 37.4 °F 18% 29.90 in 10.0 mi South 16.1 mph 24.2 mph N/A   Clear
3:55 PM 86.0 °F 35.6 °F 17% 29.90 in 10.0 mi South 13.8 mph 21.9 mph N/A   Clear
4:15 PM 84.2 °F 37.4 °F 19% 29.89 in 10.0 mi South 15.0 mph 21.9 mph N/A   Clear
4:35 PM 84.2 °F 37.4 °F 19% 29.89 in 10.0 mi SSW 18.4 mph 24.2 mph N/A   Clear
4:55 PM 86.0 °F 39.2 °F 19% 29.89 in 10.0 mi South 15.0 mph 24.2 mph N/A   Clear
5:15 PM 82.4 °F 39.2 °F 21% 29.89 in 10.0 mi South 12.7 mph 20.7 mph N/A   Clear
5:35 PM 82.4 °F 41.0 °F 23% 29.89 in 10.0 mi South 16.1 mph 21.9 mph N/A   Clear
5:55 PM 82.4 °F 41.0 °F 23% 29.89 in 10.0 mi South 10.4 mph - N/A   Clear
6:15 PM 80.6 °F 42.8 °F 26% 29.89 in 10.0 mi South 9.2 mph - N/A   Clear
6:35 PM 78.8 °F 42.8 °F 28% 29.90 in 10.0 mi SSW 8.1 mph - N/A   Clear
6:55 PM 73.4 °F 44.6 °F 36% 29.91 in 10.0 mi SSW 5.8 mph - N/A   Clear
7:15 PM 71.6 °F 46.4 °F 41% 29.92 in 10.0 mi SW 6.9 mph - N/A   Clear
7:35 PM 69.8 °F 46.4 °F 43% 29.92 in 10.0 mi SSW 4.6 mph - N/A   Clear
7:55 PM 69.8 °F 48.2 °F 46% 29.92 in 10.0 mi South 5.8 mph - N/A   Clear
8:15 PM 66.2 °F 50.0 °F 56% 29.92 in 10.0 mi Calm Calm - N/A   Scattered Clouds
8:35 PM 62.6 °F 51.8 °F 68% 29.92 in 10.0 mi Calm Calm - N/A   Clear
8:55 PM 62.6 °F 50.0 °F 63% 29.92 in 10.0 mi Calm Calm - N/A   Scattered Clouds
9:35 PM 59.0 °F 50.0 °F 72% 29.93 in 10.0 mi Calm Calm - N/A   Scattered Clouds
9:55 PM 59.0 °F 51.8 °F 77% 29.93 in 10.0 mi Calm Calm - N/A   Clear
10:15 PM 60.8 °F 50.0 °F 68% 29.93 in 10.0 mi Calm Calm - N/A   Clear
10:35 PM 59.0 °F 50.0 °F 72% 29.93 in 10.0 mi Calm Calm - N/A   Clear
10:55 PM 59.0 °F 50.0 °F 72% 29.93 in 10.0 mi Calm Calm - N/A   Clear
11:15 PM 55.4 °F 50.0 °F 82% 29.94 in 10.0 mi Calm Calm - N/A   Clear
11:35 PM 55.4 °F 48.2 °F 77% 29.94 in 10.0 mi Calm Calm - N/A   Clear
11:55 PM 55.4 °F 48.2 °F 77% 29.94 in 10.0 mi Calm Calm - N/A   Clear